FW9958 Weather Reports


time (UTC)temp
F
wind
direction
speed
knots
gust
knots
rain 1hr
in
rain 24hr
in
rain mn
in
humidity
%
barometer
mb
20260906203104 106 145 0.9 7.8 0.00 0.00 0.00 28 1012.3
20260906201601 104 115 1.7 7.8 0.00 0.00 0.00 30 1012.5
20260906200106 105 11 0.9 8.7 0.00 0.00 0.00 29 1012.7
20260906194602 103 199 5.2 10.4 0.00 0.00 0.00 31 1013.0
20260906193108 101 134 1.7 6.1 0.00 0.00 0.00 33 1013.1
20260906191610 103 184 2.6 8.7 0.00 0.00 0.00 32 1013.4
20260906190105 101 140 2.6 10.4 0.00 0.00 0.00 33 1013.5
20260906184602 103 162 2.6 8.7 0.00 0.00 0.00 33 1013.7
20260906183057 102 155 3.5 9.6 0.00 0.00 0.00 33 1013.9
20260906181559 103 360 1.7 7.8 0.00 0.00 0.00 33 1014.1
20260906180124 102 83 2.6 6.1 0.00 0.00 0.00 35 1014.4
20260906174606 100 137 1.7 8.7 0.00 0.00 0.00 37 1014.7
20260906173102 101 158 3.5 9.6 0.00 0.00 0.00 37 1015.0
20260906171600 102 164 3.5 8.7 0.00 0.00 0.00 37 1015.1
20260906170106 102 312 2.6 8.7 0.00 0.00 0.00 37 1015.3
20260906164557 102 175 0.9 3.5 0.00 0.00 0.00 37 1015.3
20260906163104 101 231 1.7 7.0 0.00 0.00 0.00 38 1015.7
20260906161559 100 166 0.9 7.8 0.00 0.00 0.00 41 1015.6
20260906160100 98 195 1.7 5.2 0.00 0.00 0.00 42 1015.5
20260906154601 96 155 2.6 5.2 0.00 0.00 0.00 43 1015.5
20260906153115 96 166 2.6 6.1 0.00 0.00 0.00 44 1015.4
20260906151603 95 251 1.7 6.1 0.00 0.00 0.00 44 1015.4
20260906150103 95 205 2.6 7.8 0.00 0.00 0.00 46 1015.3
20260906144603 93 261 2.6 7.0 0.00 0.00 0.00 49 1015.3
20260906143100 90 235 2.6 6.1 0.00 0.00 0.00 53 1015.3
20260906141601 87 167 3.5 7.0 0.00 0.00 0.00 56 1015.3
20260906140108 84 236 2.6 7.0 0.00 0.00 0.00 61 1015.1
20260906134615 82 236 2.6 6.1 0.00 0.00 0.00 65 1015.0
20260906133110 80 216 1.7 3.5 0.00 0.00 0.00 67 1014.9
20260906131559 79 165 0.9 3.5 0.00 0.00 0.00 69 1014.8
20260906124602 78 169 0.9 2.6 0.00 0.00 0.00 70 1014.4
20260906123103 77 181 1.7 4.3 0.00 0.00 0.00 69 1014.3
20260906121556 77 184 1.7 4.3 0.00 0.00 0.00 70 1014.1
20260906114602 78 0 0.0 1.7 0.00 0.00 0.00 68 1013.8
20260906113100 79 0 0.0 2.6 0.00 0.00 0.00 65 1013.7
20260906111604 79 153 1.7 3.5 0.00 0.00 0.00 65 1013.3
20260906110103 79 178 0.9 3.5 0.00 0.00 0.00 64 1013.3
20260906104558 79 154 0.9 3.5 0.00 0.00 0.00 65 1013.3
20260906103111 79 162 1.7 4.3 0.00 0.00 0.00 66 1013.2
20260906101600 78 170 1.7 3.5 0.00 0.00 0.00 66 1013.2
20260906100105 79 0 0.0 0.9 0.00 0.00 0.00 64 1013.2
20260906094601 79 0 0.0 0.9 0.00 0.00 0.00 62 1013.1
20260906093059 80 0 0.0 0.0 0.00 0.00 0.00 60 1013.1
20260906091602 81 0 0.0 0.9 0.00 0.00 0.00 59 1013.1
20260906090118 81 150 0.0 2.6 0.00 0.00 0.00 57 1013.0
20260906084558 81 173 0.9 3.5 0.00 0.00 0.00 57 1012.9
20260906083056 81 184 0.9 3.5 0.00 0.00 0.00 57 1012.9
20260906081600 82 164 0.0 1.7 0.00 0.00 0.00 56 1013.0
20260906080126 82 0 0.0 0.9 0.00 0.00 0.00 55 1012.9
20260906074610 83 209 0.9 2.6 0.00 0.00 0.00 54 1013.0
20260906073114 83 190 0.9 3.5 0.00 0.00 0.00 53 1012.9
20260906071558 84 169 1.7 4.3 0.00 0.00 0.00 53 1013.0
20260906070058 84 167 1.7 5.2 0.00 0.00 0.00 52 1013.0
20260906064602 85 161 2.6 5.2 0.00 0.00 0.00 52 1013.0
20260906063100 85 190 2.6 5.2 0.00 0.00 0.00 51 1013.0
20260906061601 85 169 2.6 7.0 0.00 0.00 0.00 51 1012.9
20260906060105 86 171 3.5 7.0 0.00 0.00 0.00 50 1013.0
20260906054604 86 161 3.5 6.1 0.00 0.00 0.00 50 1012.9
20260906053100 86 224 2.6 5.2 0.00 0.00 0.00 50 1012.8
20260906051605 87 187 2.6 5.2 0.00 0.00 0.00 48 1012.7
20260906050107 87 163 1.7 5.2 0.00 0.00 0.00 47 1012.8
20260906044600 87 184 3.5 7.0 0.00 0.00 0.00 47 1012.7
20260906043101 88 171 2.6 5.2 0.00 0.00 0.00 48 1012.8
20260906041605 88 175 1.7 4.3 0.00 0.00 0.00 46 1012.8
20260906034639 89 178 2.6 5.2 0.00 0.00 0.00 44 1012.9
20260906033055 90 175 3.5 6.1 0.00 0.00 0.00 44 1012.7
20260906031554 90 144 2.6 4.3 0.00 0.00 0.00 43 1012.7
20260906024555 91 159 1.7 5.2 0.00 0.00 0.00 43 1012.5
20260906023101 91 163 1.7 4.3 0.00 0.00 0.00 42 1012.4
20260906021603 92 156 0.9 3.5 0.00 0.00 0.00 42 1012.2
20260906020107 92 178 2.6 5.2 0.00 0.00 0.00 41 1012.1
20260906014559 93 178 1.7 4.3 0.00 0.00 0.00 40 1012.1
20260906013106 93 178 0.9 3.5 0.00 0.00 0.00 39 1011.7
20260906011603 94 0 0.9 3.5 0.00 0.00 0.00 38 1011.5
20260906010104 95 159 1.7 3.5 0.00 0.00 0.00 36 1011.5
20260906004605 97 135 2.6 7.0 0.00 0.00 0.00 35 1011.4
20260906003102 98 149 2.6 7.0 0.00 0.00 0.00 34 1011.3
20260906001603 99 156 2.6 8.7 0.00 0.00 0.00 32 1011.1
20260906000109 100 157 1.7 7.0 0.00 0.00 0.00 31 1011.2
20260905234621 100 131 1.7 8.7 0.00 0.00 0.00 32 1011.1
20260905233102 101 82 2.6 7.0 0.00 0.00 0.00 30 1010.9
20260905231605 102 126 1.7 7.8 0.00 0.00 0.00 30 1010.9
20260905230106 102 163 4.3 10.4 0.00 0.00 0.00 30 1010.9
20260905224612 101 148 2.6 8.7 0.00 0.00 0.00 32 1010.9
20260905223120 103 26 1.7 10.4 0.00 0.00 0.00 30 1010.9
20260905221559 104 162 5.2 12.2 0.00 0.00 0.00 30 1010.9
20260905220125 103 178 4.3 12.2 0.00 0.00 0.00 31 1010.9
20260905214610 104 170 4.3 10.4 0.00 0.00 0.00 30 1011.0
20260905213105 104 183 2.6 10.4 0.00 0.00 0.00 30 1011.2
20260905211608 104 146 6.1 11.3 0.00 0.00 0.00 30 1011.5
20260905210109 103 159 4.3 10.4 0.00 0.00 0.00 31 1011.8
20260905204558 103 158 4.3 10.4 0.00 0.00 0.00 31 1011.9